Saint James, MN

2:57 AM CST on February 14, 2016 (GMT -0600)
Saint James Municipal

Weather History for KJYG - March, 2014

Change the Weather History Date:

Tuesday, March 4, 2014

  Actual Average Record
Temperature  
Mean Temperature 12 °F -  
Max Temperature 19 °F 37 °F 64 °F (1983)
Min Temperature 6 °F 18 °F -10 °F (1960)
Degree Days  
Heating Degree Days 52    
Moisture  
Dew Point 9 °F    
Average Humidity 76    
Maximum Humidity 93    
Minimum Humidity 58    
Precipitation  
Precipitation 0.09 in - - ()
Sea Level Pressure  
Sea Level Pressure 30.14 in    
Wind  
Wind Speed 7 mph (East)    
Max Wind Speed 14 mph    
Max Gust Speed -    
Visibility 7 miles    
Events Snow    
Averages and records for this station are not official NWS values.
T = Trace of Precipitation, MM = Missing Value Source: NWS Daily Summary

Daily Weather History Graph

Daily Weather History Graph

Search for Another Location

Airport or City:

Trip Planner

Search our weather history database for the weather conditions in past years. The results will help you decide how hot, cold, wet, or windy it might be!

Date:

Astronomy

Mar. 04, 2014 Rise Set
Actual Time 6:49 AM CST 6:10 PM CST
Civil Twilight 6:21 AM CST 6:39 PM CST
Nautical Twilight 5:47 AM CST 7:12 PM CST
Astronomical Twilight 5:14 AM CST 7:46 PM CST
Moon 8:28 AM CST (3/4) 10:28 PM CST (3/4)
Length of Visible Light 12h 18m
Length of Day
11h 20m
Waxing Crescent, 15% of the Moon is Illuminated
Mar 4
Waxing Crescent
Mar 8
First Quarter
Mar 16
Full
Mar 23
Last Quarter
Mar 30
New

Hourly Weather History & Observations

Time (CST) Temp. Windchill Dew Point Humidity Pressure Visibility Wind Dir Wind Speed Gust Speed Precip Events Conditions
12:15 AM 12.2 °F 1.7 °F 6.8 °F 79% 30.16 in 10.0 mi SE 6.9 mph - N/A   Overcast
12:35 AM 12.2 °F 0.7 °F 6.8 °F 79% 30.15 in 10.0 mi SE 8.1 mph - N/A   Overcast
12:55 AM 12.2 °F 0.7 °F 6.8 °F 79% 30.14 in 10.0 mi SSE 8.1 mph - N/A   Overcast
1:15 AM 12.2 °F 0.7 °F 6.8 °F 79% 30.14 in 10.0 mi SSE 8.1 mph - N/A   Overcast
1:35 AM 12.2 °F 1.7 °F 6.8 °F 79% 30.14 in 10.0 mi SSE 6.9 mph - N/A   Overcast
1:55 AM 12.2 °F 0.7 °F 6.8 °F 79% 30.14 in 10.0 mi SE 8.1 mph - N/A   Overcast
2:15 AM 12.2 °F 0.7 °F 5.0 °F 73% 30.13 in 10.0 mi SE 8.1 mph - N/A   Overcast
2:35 AM 12.2 °F 1.7 °F 5.0 °F 73% 30.13 in 10.0 mi SE 6.9 mph - N/A   Overcast
2:55 AM 12.2 °F 4.3 °F 6.8 °F 79% 30.13 in 10.0 mi SE 4.6 mph - N/A   Overcast
3:14 AM 12.2 °F 1.7 °F 6.8 °F 79% 30.12 in 10.0 mi SE 6.9 mph - N/A   Overcast
3:35 AM 12.2 °F 1.7 °F 6.8 °F 79% 30.12 in 10.0 mi ESE 6.9 mph - N/A   Overcast
3:55 AM 12.2 °F 1.7 °F 6.8 °F 79% 30.12 in 10.0 mi ESE 6.9 mph - N/A   Overcast
4:15 AM 12.2 °F 1.7 °F 6.8 °F 79% 30.12 in 10.0 mi ESE 6.9 mph - N/A   Overcast
4:34 AM 12.2 °F 0.7 °F 6.8 °F 79% 30.11 in 10.0 mi ESE 8.1 mph - N/A   Overcast
4:55 AM 12.2 °F 1.7 °F 6.8 °F 79% 30.11 in 10.0 mi SE 6.9 mph - N/A   Overcast
5:15 AM 12.2 °F 2.9 °F 6.8 °F 79% 30.11 in 10.0 mi ESE 5.8 mph - N/A   Overcast
5:35 AM 12.2 °F 2.9 °F 5.0 °F 73% 30.11 in 10.0 mi SE 5.8 mph - N/A   Overcast
5:55 AM 12.2 °F 4.3 °F 5.0 °F 73% 30.12 in 10.0 mi SE 4.6 mph - N/A   Scattered Clouds
6:15 AM 10.4 °F 4.0 °F 3.2 °F 73% 30.11 in 10.0 mi SE 3.5 mph - N/A   Clear
6:35 AM 8.6 °F 0.1 °F 3.2 °F 79% 30.11 in 10.0 mi ESE 4.6 mph - N/A   Clear
6:55 AM 6.8 °F -2.0 °F 1.4 °F 79% 30.11 in 10.0 mi ESE 4.6 mph - N/A   Clear
7:15 AM 8.6 °F 0.1 °F 3.2 °F 79% 30.11 in 10.0 mi ESE 4.6 mph - N/A   Clear
7:35 AM 8.6 °F 0.1 °F 3.2 °F 79% 30.11 in 10.0 mi East 4.6 mph - N/A   Clear
7:55 AM 8.6 °F 0.1 °F 3.2 °F 79% 30.11 in 10.0 mi ESE 4.6 mph - N/A   Clear
8:15 AM 10.4 °F 2.2 °F 3.2 °F 73% 30.13 in 10.0 mi ESE 4.6 mph - N/A   Clear
8:35 AM 10.4 °F 2.2 °F 3.2 °F 73% 30.14 in 10.0 mi SE 4.6 mph - N/A   Clear
8:55 AM 12.2 °F 2.9 °F 3.2 °F 67% 30.13 in 10.0 mi SE 5.8 mph - N/A   Clear
9:15 AM 12.2 °F 4.3 °F 5.0 °F 73% 30.13 in 10.0 mi SSE 4.6 mph - N/A   Scattered Clouds
9:35 AM 12.2 °F 6.1 °F 3.2 °F 67% 30.13 in 10.0 mi SSE 3.5 mph - N/A   Clear
9:55 AM 14.0 °F - 3.2 °F 62% 30.13 in 10.0 mi Calm Calm - N/A   Clear
10:15 AM 15.8 °F - 6.8 °F 68% 30.13 in 10.0 mi Calm Calm - N/A   Clear
10:35 AM 15.8 °F 10.2 °F 5.0 °F 62% 30.13 in 10.0 mi ENE 3.5 mph - N/A   Clear
10:55 AM 15.8 °F 10.2 °F 6.8 °F 68% 30.13 in 10.0 mi ENE 3.5 mph - N/A   Clear
11:15 AM 15.8 °F 10.2 °F 5.0 °F 62% 30.14 in 10.0 mi NE 3.5 mph - N/A   Scattered Clouds
11:35 AM 15.8 °F 8.6 °F 6.8 °F 68% 30.15 in 10.0 mi ENE 4.6 mph - N/A   Scattered Clouds
11:55 AM 17.6 °F 7.3 °F 6.8 °F 63% 30.14 in 10.0 mi ENE 8.1 mph - N/A   Clear
12:15 PM 17.6 °F 6.4 °F 6.8 °F 63% 30.13 in 10.0 mi ENE 9.2 mph - N/A   Scattered Clouds
12:35 PM 17.6 °F 6.4 °F 6.8 °F 63% 30.11 in 10.0 mi ENE 9.2 mph - N/A   Scattered Clouds
12:55 PM 17.6 °F 4.3 °F 6.8 °F 63% 30.10 in 10.0 mi East 12.7 mph - N/A   Clear
1:14 PM 19.4 °F 7.9 °F 8.6 °F 63% 30.10 in 10.0 mi ENE 10.4 mph - N/A   Clear
1:35 PM 19.4 °F 7.2 °F 8.6 °F 63% 30.10 in 10.0 mi East 11.5 mph - N/A   Scattered Clouds
1:55 PM 19.4 °F 7.2 °F 6.8 °F 58% 30.11 in 10.0 mi ENE 11.5 mph - N/A   Scattered Clouds
2:14 PM 19.4 °F 6.6 °F 8.6 °F 63% 30.12 in 10.0 mi ENE 12.7 mph - N/A   Clear
2:35 PM 19.4 °F 8.6 °F 8.6 °F 63% 30.13 in 10.0 mi East 9.2 mph - N/A   Clear
2:55 PM 19.4 °F 7.9 °F 8.6 °F 63% 30.13 in 10.0 mi ENE 10.4 mph - N/A   Scattered Clouds
3:15 PM 19.4 °F 7.9 °F 8.6 °F 63% 30.13 in 10.0 mi East 10.4 mph - N/A   Mostly Cloudy
3:35 PM 19.4 °F 7.9 °F 8.6 °F 63% 30.12 in 10.0 mi East 10.4 mph - N/A   Scattered Clouds
3:55 PM 19.4 °F 9.5 °F 8.6 °F 63% 30.13 in 10.0 mi East 8.1 mph - N/A   Scattered Clouds
4:15 PM 19.4 °F 7.2 °F 10.4 °F 68% 30.13 in 4.0 mi East 11.5 mph - N/A Snow Light Snow
4:35 PM 17.6 °F 5.0 °F 14.0 °F 86% 30.13 in 0.5 mi ENE 11.5 mph - N/A Snow Snow
4:54 PM 17.6 °F 5.7 °F 15.8 °F 93% 30.13 in 0.5 mi ENE 10.4 mph - N/A Snow Snow
5:15 PM 17.6 °F 4.3 °F 14.0 °F 86% 30.14 in 0.8 mi ENE 12.7 mph - N/A Snow Light Snow
5:35 PM 17.6 °F 4.3 °F 14.0 °F 86% 30.14 in 2.5 mi ENE 12.7 mph - N/A Snow Light Snow
5:54 PM 17.6 °F 5.7 °F 15.8 °F 93% 30.15 in 1.0 mi ENE 10.4 mph - N/A Snow Light Snow
6:15 PM 17.6 °F 5.7 °F 15.8 °F 93% 30.16 in 1.0 mi ENE 10.4 mph - N/A Snow Snow
6:35 PM 17.6 °F 6.4 °F 14.0 °F 86% 30.16 in 1.0 mi ENE 9.2 mph - N/A Snow Snow
6:54 PM 17.6 °F 4.3 °F 14.0 °F 86% 30.16 in 1.2 mi ENE 12.7 mph - N/A Snow Light Snow
7:15 PM 17.6 °F 3.7 °F 14.0 °F 86% 30.16 in 1.0 mi ENE 13.8 mph - N/A Snow Snow
7:35 PM 17.6 °F 5.0 °F 14.0 °F 86% 30.17 in 1.0 mi ENE 11.5 mph - N/A Snow Snow
7:54 PM 17.6 °F 5.7 °F 14.0 °F 86% 30.18 in 0.8 mi ENE 10.4 mph - 0.01 in Snow Snow
8:15 PM 17.6 °F 5.7 °F 14.0 °F 86% 30.18 in 0.5 mi ENE 10.4 mph - N/A Snow Snow
8:35 PM 17.6 °F 7.3 °F 14.0 °F 86% 30.18 in 0.5 mi NE 8.1 mph - N/A Snow Snow
8:55 PM 17.6 °F 5.7 °F 14.0 °F 86% 30.18 in 0.8 mi NE 10.4 mph - N/A Snow Snow
9:15 PM 17.6 °F 7.3 °F 14.0 °F 86% 30.20 in 0.8 mi NE 8.1 mph - 0.02 in Snow Snow
9:35 PM 17.6 °F 7.3 °F 14.0 °F 86% 30.21 in 1.0 mi NE 8.1 mph - 0.02 in Snow Snow
9:55 PM 17.6 °F 7.3 °F 14.0 °F 86% 30.22 in 0.8 mi NE 8.1 mph - 0.04 in Snow Snow
10:15 PM 17.6 °F 7.3 °F 14.0 °F 86% 30.23 in 0.8 mi NE 8.1 mph - N/A Snow Snow
10:34 PM 17.6 °F 7.3 °F 14.0 °F 86% 30.24 in 1.0 mi NE 8.1 mph - 0.01 in Snow Snow
10:55 PM 17.6 °F 9.3 °F 14.0 °F 86% 30.25 in 0.8 mi NE 5.8 mph - 0.03 in Snow Snow
11:15 PM 17.6 °F 8.2 °F 14.0 °F 86% 30.25 in 0.8 mi NE 6.9 mph - N/A Snow Snow
11:34 PM 17.6 °F 7.3 °F 14.0 °F 86% 30.26 in 0.8 mi NE 8.1 mph - N/A Snow Snow
11:55 PM 15.8 °F 6.1 °F 14.0 °F 93% 30.25 in 1.2 mi ENE 6.9 mph - 0.01 in Snow Light Snow